Theta_e
292 290 289 292 292 292 292 290 290 291 289 289 292 292 295 298 295 296 297 295 294 295 296 297 299 300 301 302 302 302 301 300 301 302 301 302 302 303 303 304 304 304 304 303
290 289 295 291 291 289 290 290 290 290 288 288 291 289 294 295 294 294 293 293 293 293 293 295 297 299 300 301 300 300 299 299 300 301 301 302 302 302 303 304 303 302 302 302
291 292 290 291 287 287 288 288 288 289 287 287 287 290 293 292 292 290 291 292 292 293 293 293 295 298 300 299 299 298 299 299 299 300 301 301 301 303 302 302 302 301 301 301
289 290 288 288 287 289 287 289 288 286 288 287 286 287 293 292 290 289 290 291 292 292 293 294 296 297 298 298 299 299 298 299 300 302 301 300 299 299 300 300 300 300 300 299
290 286 286 287 288 289 287 287 287 285 285 284 284 285 292 288 288 289 290 291 292 293 294 294 296 297 296 298 298 298 299 300 300 300 300 300 299 300 300 299 299 299 299 298
287 288 287 288 285 286 288 287 286 286 285 280 284 286 289 290 291 290 290 290 291 292 294 295 295 295 295 297 297 298 299 299 299 299 298 298 297 297 297 297 297 297 297 297
285 285 287 287 285 287 287 285 282 279 278 280 281 280 289 290 290 291 290 290 292 293 293 293 293 294 295 296 296 297 299 297 298 298 297 297 296 296 296 296 295 294 295 295
282 281 284 287 287 285 284 286 286 279 280 283 278 279 287 289 289 290 292 292 292 292 293 294 294 295 295 295 296 297 298 296 297 297 297 297 296 297 297 296 295 295 294 295
281 280 285 285 286 287 283 281 286 279 270 279 285 285 289 288 287 288 289 290 291 291 292 293 294 295 295 295 295 297 297 296 297 297 297 296 296 296 295 295 295 295 295 294
286 281 283 284 287 286 284 287 280 282 277 276 281 280 288 284 285 287 288 290 291 291 292 293 294 295 295 295 295 297 297 296 296 296 296 295 295 295 295 295 294 294 294 294
290 287 282 284 282 282 281 281 282 284 283 280 279 284 290 290 288 287 289 291 291 291 292 293 294 294 294 293 295 296 295 294 294 294 294 294 294 294 295 294 294 294 294 294
286 285 282 282 283 283 284 284 283 281 279 282 281 285 288 288 289 289 289 290 292 292 292 293 294 292 291 292 293 293 293 293 294 294 294 294 294 294 294 293 293 293 292 293
285 282 278 279 280 282 282 284 284 285 284 282 279 284 287 287 288 290 290 291 290 291 291 292 291 290 291 291 291 291 291 292 292 293 293 293 293 293 293 292 292 291 290 290
287 282 281 278 280 283 278 281 283 284 280 282 283 287 287 285 287 289 290 291 291 290 290 290 291 292 292 292 292 291 291 292 292 292 292 292 293 292 292 290 290 291 291 290
286 279 279 279 280 281 280 280 281 282 284 281 286 286 289 287 287 289 291 291 290 289 288 290 292 292 292 292 291 290 291 291 291 290 291 291 291 291 290 290 291 291 291 290
283 279 276 276 276 278 279 282 281 281 283 284 283 281 288 288 288 289 289 289 288 289 288 290 291 291 291 291 291 290 290 290 291 290 290 290 290 290 290 290 290 289 289 289
280 279 275 275 275 274 274 278 281 282 283 282 279 284 288 286 286 288 288 290 289 289 289 288 289 289 290 291 291 290 291 291 290 290 290 290 290 289 290 290 289 288 288 289
279 277 278 275 272 269 281 285 286 284 285 285 285 287 288 288 289 292 292 291 290 288 289 290 289 289 290 292 291 291 290 289 289 287 288 289 289 288 289 287 287 287 287 286
283 279 274 272 273 276 280 279 280 279 280 285 284 286 287 286 287 288 289 290 291 288 288 289 289 288 288 286 290 288 286 285 284 284 285 285 285 286 287 285 286 286 285 284
279 281 276 274 270 269 279 284 284 283 276 284 285 285 286 285 281 286 291 291 290 288 286 286 286 287 286 285 285 285 284 283 282 284 284 284 284 285 285 285 286 285 285 285
274 275 272 273 271 275 282 281 283 274 277 284 285 285 284 283 287 288 287 287 288 286 284 286 285 285 285 283 284 283 283 282 285 283 283 283 283 284 285 285 286 284 285 285
272 271 272 273 271 269 283 279 277 283 285 284 284 284 285 287 286 287 286 286 285 282 282 284 284 283 282 283 284 283 281 284 282 282 282 282 282 284 285 284 285 284 284 284
270 275 273 275 275 283 283 284 285 285 283 285 284 285 286 286 285 286 285 285 284 283 283 283 284 283 283 283 285 284 285 283 281 281 282 283 284 283 284 284 284 284 284 284
274 278 274 274 279 279 281 286 285 285 286 286 286 287 285 284 285 284 284 284 284 284 283 282 283 283 282 282 282 284 283 282 282 283 284 284 282 284 284 284 285 285 284 284
275 276 274 274 276 279 283 285 286 285 285 284 287 287 288 285 284 285 284 284 284 284 283 284 284 284 284 284 283 284 283 282 282 283 284 285 285 284 284 285 286 285 286 287
276 274 272 272 277 278 280 284 286 284 284 285 284 284 285 284 285 284 284 285 284 284 283 282 283 283 284 283 283 283 281 281 282 283 284 285 285 285 284 284 285 286 285 286
Wind_Speed
2 5 11 17 14 2 2 4 7 3 2 3 11 15 22 10 12 14 10 7 6 7 1 6 9 10 13 12 13 12 12 10 7 5 5 3 3 3 3 3 5 5 6 6
3 12 13 3 7 7 7 9 8 4 3 4 10 17 22 16 13 8 6 6 6 5 5 9 12 11 13 14 13 12 11 9 6 4 3 2 2 2 2 2 4 5 6 6
14 2 3 9 7 9 10 12 6 5 2 3 7 16 13 4 6 4 4 4 5 6 9 12 13 14 15 14 14 12 11 10 7 6 4 3 3 2 1 3 4 5 5 6
9 3 7 8 8 11 12 9 7 5 4 5 2 8 8 6 8 6 5 6 6 8 9 12 14 15 15 13 12 12 11 10 7 6 5 5 2 2 2 3 4 5 5 6
4 7 9 11 7 12 1 4 6 2 3 3 6 6 4 3 10 11 7 6 8 10 13 15 15 15 13 12 11 10 10 9 7 6 5 3 3 1 3 3 6 5 5 6
4 1 3 1 4 1 12 8 6 3 2 7 9 9 14 9 10 11 9 8 9 11 13 13 13 13 12 10 10 9 10 8 6 5 5 5 4 3 4 5 5 5 5 5
4 9 4 3 7 5 5 9 3 5 6 9 4 7 17 2 5 10 15 13 12 12 13 13 14 12 11 11 10 8 8 7 6 5 5 4 3 4 5 5 5 8 6 5
7 6 12 10 6 8 14 9 6 11 7 4 1 10 6 2 3 6 12 13 13 12 11 13 12 11 11 10 9 8 8 7 6 5 4 3 3 3 3 4 5 6 7 7
6 4 2 2 2 4 8 11 2 5 2 3 6 6 11 6 5 9 14 14 14 13 12 12 11 10 10 9 8 8 7 7 6 5 3 2 3 4 4 5 6 5 7 7
1 4 1 3 2 2 5 5 5 3 7 9 6 5 7 11 13 14 16 17 16 14 13 11 10 10 8 8 7 7 7 6 5 4 2 1 2 4 4 4 6 7 8 8
10 9 4 4 10 12 5 6 5 3 4 4 3 5 2 8 14 18 18 18 17 15 14 12 10 8 8 7 7 7 6 6 5 4 4 4 4 3 3 4 6 7 9 10
5 2 6 7 1 2 3 9 8 5 6 5 2 6 1 3 11 13 14 14 15 14 13 10 10 9 9 9 8 7 6 6 6 5 5 5 3 3 4 5 7 8 9 10
1 4 5 4 3 2 7 14 12 12 3 12 9 7 5 1 10 11 13 12 11 12 11 10 9 9 9 9 8 7 7 7 6 6 5 4 1 4 5 6 7 8 9 9
2 4 7 12 5 4 6 9 15 14 7 9 13 10 1 5 13 12 10 10 11 11 11 10 9 9 8 8 8 8 7 6 5 5 4 2 2 3 5 5 6 8 8 10
5 7 5 6 5 3 3 5 14 19 24 11 16 20 12 10 17 17 10 10 11 9 10 11 10 9 8 8 8 6 5 5 4 3 3 3 3 3 5 6 7 7 8 9
3 10 3 7 3 7 6 9 12 20 20 21 19 17 5 3 6 7 10 9 9 10 11 11 9 8 9 9 7 6 6 5 5 5 4 4 4 5 6 6 6 7 8 9
5 4 5 18 6 5 7 18 15 12 11 19 17 16 10 7 11 14 11 14 15 12 10 11 11 10 8 7 7 8 7 6 6 5 5 5 5 7 6 6 6 7 8 9
11 9 6 4 2 12 11 8 18 22 20 18 18 16 12 12 12 12 14 18 18 13 13 10 10 9 8 7 8 6 6 5 4 4 6 6 6 7 6 6 6 7 7 9
18 12 7 7 10 8 10 5 6 10 16 13 19 17 15 5 2 11 10 12 14 13 12 11 10 9 8 8 8 6 5 4 4 6 7 6 6 6 5 5 6 7 7 8
7 14 12 10 14 9 14 7 7 6 12 10 14 15 13 10 9 12 9 14 12 10 6 9 10 8 11 8 7 7 6 6 6 6 6 4 5 5 5 5 4 5 7 8
6 6 13 14 13 11 13 1 5 9 7 4 7 11 9 10 12 1 2 5 5 6 7 6 10 11 11 9 8 7 6 8 6 4 3 3 4 6 6 5 5 6 6 7
11 10 12 13 13 17 6 2 14 12 4 4 5 7 11 13 7 7 5 6 7 7 8 10 11 8 7 9 9 7 7 4 4 3 3 4 5 5 5 7 5 5 6 8
6 6 7 12 10 6 3 10 3 3 5 6 5 5 10 6 8 8 7 8 9 10 7 5 8 8 5 7 6 7 6 6 5 4 5 5 4 6 5 6 6 5 7 7
9 10 7 9 8 20 25 22 6 7 6 5 6 9 5 11 8 8 7 6 7 8 8 7 7 7 7 7 7 8 5 4 4 5 6 3 4 5 4 5 6 6 7 7
11 6 11 14 21 19 21 17 10 5 6 5 7 12 14 9 9 10 9 8 7 7 6 8 8 8 7 6 6 5 5 5 6 6 6 4 4 4 5 5 6 7 8 7
14 18 14 16 19 15 22 11 19 9 7 9 6 11 12 8 10 9 8 6 7 6 6 6 5 4 5 6 5 5 4 5 5 5 4 5 5 5 5 6 6 13 19 14
Wind_Direction
91 209 211 216 214 259 144 211 236 210 128 259 244 264 273 263 264 268 270 255 255 261 234 176 157 148 144 143 140 137 131 129 136 135 139 139 116 104 87 75 37 22 359 344
169 236 236 91 202 205 227 248 244 269 154 248 283 271 275 272 258 256 245 240 241 219 180 160 154 148 149 144 136 133 126 123 115 118 108 94 96 106 47 63 13 13 351 342
223 182 149 191 175 196 224 227 222 252 152 234 291 271 241 202 209 210 217 246 235 207 169 161 156 153 146 142 138 131 122 112 99 104 113 115 128 155 179 356 348 350 341 338
243 180 180 183 211 202 241 213 212 180 196 248 292 289 262 215 215 220 205 208 187 165 158 156 151 149 142 134 129 124 117 111 104 107 102 81 69 354 6 322 327 325 335 335
193 174 190 217 223 188 223 135 156 144 179 335 176 261 213 181 230 216 196 183 168 161 156 152 150 140 132 137 130 125 121 116 112 99 92 107 94 44 340 332 328 337 336 333
276 35 220 164 85 218 140 108 81 90 128 247 172 214 258 205 223 184 171 172 162 159 152 143 136 137 134 134 135 137 134 122 115 113 100 82 63 22 349 345 332 334 330 328
204 216 160 170 126 130 199 164 164 214 197 248 121 205 259 219 192 183 170 166 161 159 153 147 147 148 144 148 146 143 142 133 130 122 110 91 60 14 350 343 333 328 324 322
205 222 180 173 226 188 196 209 212 236 218 239 92 230 246 261 143 159 166 159 155 159 158 158 155 153 154 155 157 152 150 142 151 145 124 99 49 359 331 333 316 309 313 315
210 235 138 200 175 171 176 218 84 100 81 267 200 249 258 191 174 175 168 164 165 162 160 156 155 158 159 161 161 160 158 155 156 145 132 94 19 345 309 293 300 313 311 320
346 254 168 137 194 207 242 140 174 203 218 230 210 266 248 198 190 177 175 176 168 163 161 162 164 162 161 159 159 163 164 163 156 150 139 169 280 273 276 303 326 316 311 316
204 220 124 133 210 192 172 196 229 266 234 257 267 227 183 232 187 181 178 177 172 173 173 173 173 170 165 162 168 169 172 175 178 185 189 207 235 279 308 325 321 314 312 310
222 259 242 210 44 317 230 223 189 216 214 246 352 269 111 295 182 173 174 175 177 179 175 175 172 171 171 178 176 180 183 190 195 194 198 212 238 344 342 328 324 324 318 318
100 228 229 211 186 193 207 223 235 225 341 221 210 252 14 119 172 174 170 177 174 169 169 171 172 182 184 181 177 181 188 194 189 185 201 208 287 345 339 331 329 325 312 304
80 265 246 252 299 122 202 208 206 192 203 219 232 238 189 168 182 184 190 180 172 180 178 176 182 193 187 181 180 184 186 186 174 188 198 226 293 330 323 319 302 307 308 310
195 247 249 259 254 250 235 212 204 207 224 220 246 242 255 209 197 201 191 179 181 187 187 193 200 196 188 188 189 184 184 178 178 200 217 240 256 281 288 286 306 313 314 313
325 253 178 268 232 241 240 232 219 223 236 241 260 262 268 314 202 195 203 193 195 203 198 204 206 189 199 195 187 182 191 186 182 208 229 223 233 256 270 287 307 317 313 314
265 283 205 248 170 171 242 229 224 220 216 223 235 250 229 219 210 214 210 211 210 209 203 210 204 200 202 195 183 192 191 173 190 217 227 228 230 252 266 282 303 302 307 313
254 264 286 303 213 215 248 218 223 229 233 220 254 253 229 231 227 223 215 213 216 204 214 216 204 196 199 187 185 181 183 181 192 214 240 230 228 242 256 276 290 305 309 311
218 232 253 265 247 306 289 177 174 209 243 217 231 248 248 211 299 254 218 219 217 207 209 211 201 190 168 174 171 166 168 177 207 227 234 229 225 231 239 255 286 297 301 303
228 237 229 228 250 248 245 251 198 164 257 210 221 238 239 167 222 249 206 221 225 205 180 192 184 172 160 170 152 163 173 194 218 225 225 220 217 228 238 243 263 280 282 280
261 229 241 241 241 255 270 180 164 191 266 224 235 246 189 206 230 1 175 225 230 207 185 159 167 169 171 148 158 170 173 214 213 207 216 221 232 234 237 244 242 261 269 277
253 253 244 241 246 259 206 140 229 252 234 227 210 211 204 226 227 214 221 231 198 185 169 166 158 159 154 156 160 169 201 204 188 191 208 228 233 238 239 239 243 244 271 285
252 270 302 269 262 294 303 272 346 258 274 288 276 238 230 228 227 220 223 206 195 174 159 157 154 145 160 171 177 184 206 189 192 211 235 231 229 247 240 242 245 253 261 267
256 249 262 309 294 307 307 288 236 232 257 307 298 300 271 254 241 210 196 184 175 168 165 155 146 165 182 189 193 220 154 176 201 250 256 232 239 253 245 251 252 251 254 258
252 257 262 265 277 286 285 281 302 272 228 236 240 273 270 261 243 200 189 180 175 166 148 159 167 172 180 174 198 211 194 184 227 240 261 279 259 254 265 245 242 234 237 238
243 250 248 255 265 265 267 269 300 296 261 235 238 265 259 229 235 188 197 180 164 174 162 172 179 176 194 180 201 199 185 188 211 244 260 261 266 271 263 269 278 237 245 244